Вернуться в каталог

FENGYUN 2C AKM

АктивенGEO
NORAD 28491·ROCKET BODY·🇨🇳 China

Запущен Oct 19, 2004 с Xichang Satellite Launch Center

Loading…

TLE

СвежийSource: Space-Track

Эпоха: Sep 14, 2026, 06:36 UTC

1 28491U 04042C   26257.27538727 -.00000273  00000-0  00000-0 0  9990
2 28491  12.6004  18.1440 0020562 338.1226  24.1397  1.01339767 80514

Отслеживайте FENGYUN 2C AKM в реальном времени с AllMySat

Download on the App Store